Regional Weather Roundup
Issued by NWS

Home | Current Version | Previous Version | Text Only | Print | Product List | Glossary Off
Versions: 1 2 3 4 5 6 7 8 9 10 11 12 13 14 15 16 17 18 19 20 21 22 23 24 25 26 27

000
ASUS45 KBOU 181906
RWRCO

WEATHER ROUNDUP FOR COLORADO
NATIONAL WEATHER SERVICE DENVER/BOULDER CO
100 PM MDT FRI APR 18 2014

NOTE: "FAIR" INDICATES FEW OR NO CLOUDS BELOW 12000 FEET WITH NO
SIGNIFICANT WEATHER AND/OR OBSTRUCTIONS TO VISIBILITY.

COZ001>005-013-030-031-182000-
...NORTHWEST COLORADO...

CITY           SKY/WX    TMP DP  RH WIND       PRES   REMARKS
CRAIG          PTSUNNY   71  28  20 SW20G30   29.97F
HAYDEN         PTSUNNY   66  27  22 W17G23    30.03F
MEEKER         MOSUNNY   69  24  18 S24G32    30.00F
MOUNT WERNER   NOT AVBL
STEAMBOAT SPGS PTSUNNY   66  16  14 S24G32    30.02F
WALDEN         CLOUDY    59  23  25 S18G24    30.08F
$$

COZ006>008-011-182000-
...WEST CENTRAL VALLEYS...

CITY           SKY/WX    TMP DP  RH WIND       PRES   REMARKS
GRAND JUNCTION MOSUNNY   75  25  15 SE13G21   29.95F
MONTROSE       PTSUNNY   74  26  16 CALM      30.02F
EAGLE          MOSUNNY   66  27  22 SW5       30.07F
RIFLE          MOSUNNY   68  28  22 NW5       30.00F
DELTA          PTSUNNY   75  24  14 CALM      30.00F
NUCLA            N/A     73  21  14 SW13G25   30.07F
$$

COZ017>023-064>068-182000-
...SOUTHWEST COLORADO...

CITY           SKY/WX    TMP DP  RH WIND       PRES   REMARKS
DURANGO        SUNNY     67  21  17 MISG      30.11F
CORTEZ         SUNNY     72  22  15 VRB5      30.06F
PAGOSA SPRINGS SUNNY     64  16  15 S8G18     30.19F
TELLURIDE      PTSUNNY   57  19  23 CALM      30.20F
WOLF CREEK PAS SUNNY     41  19  42 SW17G29   30.37F
$$

COZ009-010-012-014-032>034-037-058>063-182000-
...CENTRAL COLORADO...

CITY           SKY/WX    TMP DP  RH WIND       PRES   REMARKS
ASPEN          PTSUNNY   63  19  18 MISG      30.12S
BUENA VISTA    MOSUNNY   65  19  17 E7G16     30.11F
COPPER MTN     MOSUNNY   45  16  31 W18G25    30.33F
BERTHOUD PASS  FAIR      37  30  75 MISG      30.35F
COTTONWOOD PAS MOSUNNY   57   9  14 W15G25    30.22F
GUNNISON       SUNNY     61  23  23 NW5       30.18F
KREMMLING      CLOUDY    63  21  20 SE7       30.10F
LEADVILLE      MOSUNNY   49  15  25 SW15G22   30.22F
MONARCH PASS   MOSUNNY   41  18  38 W32       30.43F
SALIDA         MOSUNNY  N/A N/A N/A S12G24    30.18F
SUNLIGHT       PTSUNNY   50  25  37 S3        30.26F
WILKERSON PASS SUNNY     50  21  32 SW9G16    30.31F
$$

COZ069>075-182000-
...SAN LUIS VALLEY/SANGRE DE CRISTO MOUNTAINS...

CITY           SKY/WX    TMP DP  RH WIND       PRES   REMARKS
ALAMOSA        SUNNY     64  29  26 SE6       30.16F
LA VETA PASS   SUNNY     54  23  30 SW7G17    30.28F
SAGUACHE       SUNNY     61  23  23 S9        30.18F
$$

COZ035-036-038>040-182000-
...NORTHERN COLORADO FRONT RANGE...

CITY           SKY/WX    TMP DP  RH WIND       PRES   REMARKS
DENVER INTL AP PTSUNNY   75  24  15 SE8       29.95F
DMNS CITY PARK   N/A     77  22  13 SE10      29.93F
AURORA         PTSUNNY   75  27  16 E10       29.97F
FRONT RANGE AP MOSUNNY   77  25  14 SE9G21    29.97F
ERIE MUNI ARPT SUNNY     75  26  16 CALM      29.93F
BOULDER MUN AP SUNNY     75  28  17 E6        29.93F
CENTENNIAL     PTSUNNY   75  23  14 E8G17     29.97F
BROOMFIELD     PTSUNNY   73  25  16 E7        29.96F
FORT COLLINS   SUNNY     73  37  27 S14       29.94F
LONGMONT       SUNNY     79  30  16 S6        29.94F
$$

COZ041-046-047-076>085-087-088-182000-
...PIKES PEAK/PALMER DIVIDE AND SOUTHERN FOOTHILLS...

CITY           SKY/WX    TMP DP  RH WIND       PRES   REMARKS
COLO. SPRINGS  MOSUNNY   69  30  23 SE12      30.04F
A. F. ACADEMY  SUNNY     69  23  17 SE12      30.04F
ELLICOTT       NOT AVBL
FALCON         SUNNY     69  19  15 S14G22    30.08F
FORT CARSON    SUNNY     68  38  33 SE9       30.02F
LIMON          SUNNY     72  25  17 SE12G18   30.00F
MONUMENT HILL  SUNNY     70  23  17 S10G16    30.04F
TRINIDAD       SUNNY     72  21  14 VRB3      30.04F
$$

COZ042>045-048>051-090-091-182000-
...NORTHEAST COLORADO...

CITY           SKY/WX    TMP DP  RH WIND       PRES   REMARKS
GREELEY ARPT   SUNNY     77  34  20 SE12      29.93F
AKRON          SUNNY     74  27  17 S14G26    29.95F
BURLINGTON     SUNNY     73  37  27 S16       29.99F
WRAY           MOSUNNY   75  36  23 SE12G18   29.95F
STERLING       SUNNY     81  36  19 S9G18     29.90F
HOLYOKE        MOSUNNY   77  36  22 SE15G21   29.94F
FORT MORGAN    SUNNY     77  25  14 S12G18    29.93F
$$

COZ086-089-092>099-182000-
...SOUTHEAST COLORADO...

CITY           SKY/WX    TMP DP  RH WIND       PRES   REMARKS
PUEBLO         SUNNY     71  37  28 SE9       29.98F
LA JUNTA       SUNNY     74  33  22 VRB6      29.99F
LAMAR          SUNNY     73  34  23 VRB7      29.98F
SPRINGFIELD      N/A     73  33  23 S14G24    30.02F
$$



USA.gov is the U.S. government's official web portal to all federal, state and local government web resources and services.